Regional Weather Roundup
Issued by NWS

Home | Current Version | Previous Version | Text Only | Print | Product List | Glossary On
Versions: 1 2 3 4 5 6 7 8 9 10 11 12 13 14 15 16 17 18 19 20 21 22 23 24 25 26 27 28 29 30 31 32 33 34 35 36 37 38 39 40 41 42 43 44 45 46 47 48 49 50
000
ASUS43 KLMK 070510
RWRKY
KENTUCKY REGIONAL WEATHER ROUNDUP
NATIONAL WEATHER SERVICE LOUISVILLE KY
100 AM EDT TUE JUL 07 2015

NOTE "FAIR" INDICATES FEW OR NO CLOUDS BELOW 12,000 FEET
WITH NO SIGNIFICANT WEATHER AND/OR OBSTRUCTIONS TO VISIBILITY.

KYZ001>023-026-027-061>063-070>075-070600-
WESTERN AND SOUTH CENTRAL KENTUCKY

CITY           SKY/WX    TMP DP  RH WIND       PRES   REMARKS
PADUCAH        CLOUDY    78  73  84 S8        30.00R
HENDERSON      PTCLDY    75  72  88 S7        29.97F
OWENSBORO      CLEAR     76  73  90 S8        30.00F
HOPKINSVILLE   CLEAR     76  73  89 SW12      30.04R
BOWLING GREEN  FAIR      78  71  79 S8        30.05S
GLASGOW        CLEAR     74  69  86 S3        30.05F
$$

KYZ024-025-028>034-038-045-046-053-070600-
NORTH CENTRAL KENTUCKY

CITY           SKY/WX    TMP DP  RH WIND       PRES   REMARKS
LOUISVILLE/SDF CLOUDY    79  70  74 S9        30.00F
LOUISVILLE/LOU MOCLDY    77  70  79 S6        30.01F
FORT KNOX      PTCLDY    73  70  89 S5        30.01F
$$

KYZ035>037-039>044-047>052-055>060-089>105-070600-
NORTHEAST KENTUCKY

CITY           SKY/WX    TMP DP  RH WIND       PRES   REMARKS
LEXINGTON      PTCLDY    72  68  87 S8        30.05F
COVINGTON      MOCLDY    72  68  87 S6        30.01F
FRANKFORT      PTCLDY    74  69  85 S7        30.03F
$$

KYZ054-064>069-076>088-106>120-070600-
SOUTHEAST KENTUCKY

CITY           SKY/WX    TMP DP  RH WIND       PRES   REMARKS
JACKSON        CLEAR     71  67  87 CALM      30.10F
LONDON         CLEAR     71  66  84 CALM      30.11S HAZE
SOMERSET       PTCLDY    68  68 100 CALM      30.10F FOG
MIDDLESBORO    PTCLDY    68  67  98 CALM      30.13S
MONTICELLO     CLEAR     69  69 100 CALM      30.12F FOG
$$




USA.gov is the U.S. government's official web portal to all federal, state and local government web resources and services.